User: anonymous   Login
Location: Unspecified
(43.3830°N, 0.0000°E)
Time: 12:41:24
(UTC+00:00)
Language:

Vanguard 2 - Orbit

View from above orbital plane
View from above orbital plane
View from above satellite
View from above satellite

Ground track
Ground track

The orbit data is extracted from the following two-line orbital elements,

1    11U 59001A   19289.81119071  .00000153  00000-0  69404-4 0  9990
2    11  32.8743 253.8808 1466820 310.4158  37.7191 11.85614272587672
Epoch (UTC): 16 October 2019 19:28:06
Eccentricity: 0.1466820
inclination: 32.8743°
perigee height: 554 km
apogee height: 2937 km
right ascension of ascending node: 253.8808°
argument of perigee: 310.4158°
revolutions per day: 11.85614272
mean anomaly at epoch: 37.7191°
orbit number at epoch: 58767

The dashed part of the orbit path shows where the satellite is in the earth's shadow,  

DLR